Total_Precipitation_Accumulation
0.03 0.06 0.06 0.09 0.09 0.07 0.06 0.06 0.11 0.10 0.12 0.09 0.04 0.05 0.05 0.04 0.07 0.11 0.12 0.10 0.08 0.11 0.16 0.19 0.23 0.30 0.32 0.28 0.23 0.28 0.40 0.46 0.51 0.45 0.35 0.30 0.25 0.20 0.19 0.20 0.22 0.26 0.32 0.38
0.01 0.03 0.05 0.06 0.09 0.07 0.04 0.03 0.03 0.03 0.05 0.02 0.03 0.10 0.14 0.09 0.08 0.09 0.09 0.08 0.08 0.11 0.16 0.17 0.16 0.17 0.13 0.12 0.13 0.17 0.24 0.28 0.34 0.36 0.29 0.24 0.19 0.16 0.16 0.18 0.22 0.28 0.33 0.38
0.01 0.04 0.03 0.09 0.09 0.06 0.03 0.02 0.02 0.04 0.05 0.04 0.04 0.06 0.09 0.08 0.05 0.04 0.04 0.03 0.03 0.06 0.08 0.06 0.05 0.05 0.06 0.07 0.11 0.17 0.22 0.27 0.35 0.37 0.33 0.29 0.22 0.19 0.19 0.21 0.24 0.27 0.28 0.28
0.01 0.04 0.12 0.10 0.05 0.04 0.04 0.04 0.04 0.05 0.05 0.06 0.07 0.06 0.08 0.10 0.07 0.04 0.02 0.02 0.01 0.01 0.01 0.01 0.01 0.02 0.03 0.05 0.10 0.15 0.21 0.26 0.31 0.36 0.34 0.31 0.31 0.33 0.34 0.32 0.30 0.30 0.28 0.27
0.03 0.06 0.11 0.07 0.05 0.06 0.06 0.06 0.05 0.06 0.08 0.09 0.10 0.09 0.09 0.07 0.04 0.02 0.01 0.01 0.01 0.01 0.01 0.01 0.01 0.02 0.04 0.08 0.10 0.13 0.20 0.28 0.32 0.37 0.38 0.37 0.39 0.40 0.42 0.42 0.37 0.34 0.32 0.34
0.04 0.08 0.12 0.10 0.09 0.09 0.08 0.18 0.17 0.13 0.11 0.07 0.05 0.06 0.03 0.01 0.00 0.00 0.00 0.00 0.01 0.01 0.01 0.01 0.03 0.06 0.10 0.12 0.14 0.18 0.23 0.30 0.36 0.41 0.45 0.45 0.47 0.48 0.47 0.50 0.44 0.38 0.35 0.38
0.07 0.10 0.09 0.08 0.09 0.08 0.16 0.24 0.10 0.04 0.03 0.03 0.05 0.06 0.03 0.01 0.01 0.00 0.00 0.01 0.01 0.02 0.03 0.05 0.09 0.13 0.15 0.16 0.18 0.19 0.22 0.28 0.38 0.44 0.50 0.54 0.59 0.60 0.60 0.59 0.58 0.54 0.47 0.45
0.08 0.16 0.18 0.09 0.08 0.10 0.12 0.08 0.04 0.03 0.03 0.04 0.03 0.02 0.01 0.01 0.01 0.00 0.00 0.01 0.01 0.02 0.04 0.06 0.11 0.15 0.18 0.19 0.19 0.21 0.26 0.34 0.41 0.46 0.44 0.47 0.63 0.69 0.72 0.75 0.71 0.67 0.62 0.55
0.09 0.13 0.10 0.06 0.08 0.10 0.09 0.08 0.06 0.04 0.03 0.03 0.03 0.02 0.02 0.02 0.01 0.01 0.02 0.02 0.03 0.04 0.06 0.10 0.14 0.20 0.25 0.24 0.27 0.29 0.33 0.40 0.45 0.47 0.51 0.60 0.69 0.74 0.78 0.83 0.81 0.75 0.73 0.69
0.14 0.10 0.10 0.10 0.10 0.07 0.05 0.04 0.03 0.02 0.02 0.02 0.03 0.03 0.03 0.03 0.03 0.03 0.04 0.04 0.05 0.07 0.10 0.13 0.17 0.23 0.30 0.35 0.39 0.41 0.42 0.43 0.46 0.51 0.53 0.58 0.69 0.75 0.80 0.85 0.89 0.87 0.82 0.80
0.15 0.11 0.06 0.06 0.06 0.04 0.02 0.01 0.01 0.01 0.02 0.03 0.04 0.04 0.04 0.04 0.05 0.06 0.05 0.05 0.07 0.12 0.16 0.18 0.23 0.29 0.33 0.40 0.47 0.51 0.51 0.49 0.49 0.52 0.59 0.66 0.72 0.76 0.75 0.81 0.80 0.81 0.82 0.85
0.12 0.11 0.08 0.09 0.06 0.03 0.02 0.01 0.02 0.02 0.03 0.03 0.04 0.04 0.04 0.05 0.06 0.06 0.06 0.08 0.11 0.14 0.17 0.20 0.25 0.33 0.36 0.45 0.54 0.62 0.64 0.64 0.60 0.56 0.62 0.68 0.73 0.70 0.61 0.57 0.54 0.53 0.56 0.61
0.07 0.05 0.04 0.06 0.05 0.03 0.03 0.03 0.03 0.04 0.03 0.03 0.03 0.04 0.05 0.05 0.06 0.07 0.08 0.10 0.13 0.15 0.17 0.19 0.24 0.31 0.36 0.44 0.55 0.66 0.71 0.70 0.67 0.63 0.65 0.68 0.72 0.75 0.78 0.71 0.60 0.54 0.49 0.46
0.03 0.03 0.03 0.03 0.03 0.03 0.03 0.03 0.03 0.03 0.03 0.04 0.04 0.05 0.05 0.06 0.07 0.08 0.11 0.13 0.14 0.16 0.19 0.23 0.28 0.32 0.37 0.47 0.58 0.64 0.69 0.69 0.69 0.68 0.67 0.70 0.71 0.73 0.80 0.90 0.90 0.76 0.57 0.47
0.03 0.04 0.05 0.03 0.03 0.04 0.04 0.04 0.04 0.04 0.04 0.05 0.05 0.05 0.06 0.07 0.09 0.11 0.14 0.16 0.19 0.21 0.23 0.29 0.36 0.39 0.45 0.57 0.65 0.66 0.67 0.66 0.64 0.65 0.66 0.67 0.66 0.68 0.75 0.85 0.93 0.89 0.76 0.61
0.04 0.05 0.05 0.05 0.05 0.06 0.06 0.07 0.07 0.07 0.07 0.07 0.07 0.08 0.09 0.10 0.12 0.14 0.17 0.22 0.31 0.33 0.35 0.39 0.44 0.46 0.56 0.66 0.72 0.72 0.67 0.63 0.63 0.64 0.63 0.62 0.62 0.66 0.73 0.82 0.88 0.86 0.80 0.70
0.08 0.07 0.08 0.09 0.10 0.10 0.10 0.11 0.11 0.12 0.11 0.11 0.11 0.12 0.13 0.14 0.18 0.21 0.24 0.27 0.33 0.36 0.41 0.48 0.49 0.52 0.65 0.76 0.79 0.79 0.71 0.62 0.57 0.59 0.59 0.59 0.63 0.67 0.71 0.74 0.80 0.76 0.69 0.56
0.10 0.14 0.19 0.20 0.18 0.16 0.16 0.17 0.18 0.19 0.18 0.17 0.16 0.15 0.17 0.24 0.33 0.38 0.39 0.39 0.40 0.39 0.40 0.45 0.51 0.57 0.69 0.80 0.84 0.83 0.74 0.63 0.55 0.52 0.55 0.56 0.57 0.64 0.70 0.71 0.68 0.65 0.60 0.47
0.15 0.19 0.22 0.25 0.26 0.27 0.27 0.26 0.24 0.23 0.22 0.22 0.23 0.25 0.28 0.34 0.46 0.50 0.49 0.52 0.59 0.64 0.56 0.51 0.52 0.53 0.62 0.77 0.88 0.89 0.76 0.63 0.53 0.48 0.49 0.49 0.51 0.60 0.67 0.66 0.60 0.56 0.51 0.47
0.22 0.27 0.31 0.35 0.38 0.40 0.38 0.35 0.31 0.28 0.26 0.26 0.27 0.30 0.34 0.42 0.52 0.59 0.60 0.59 0.63 0.73 0.74 0.68 0.57 0.51 0.56 0.70 0.88 0.86 0.76 0.67 0.56 0.47 0.46 0.50 0.52 0.56 0.59 0.57 0.51 0.45 0.42 0.41
0.25 0.31 0.35 0.38 0.39 0.39 0.37 0.36 0.37 0.36 0.34 0.33 0.37 0.42 0.48 0.51 0.54 0.63 0.73 0.68 0.58 0.67 0.75 0.74 0.64 0.55 0.53 0.64 0.81 0.84 0.76 0.66 0.55 0.44 0.42 0.45 0.48 0.52 0.54 0.52 0.46 0.38 0.35 0.34
0.30 0.37 0.37 0.36 0.38 0.37 0.34 0.32 0.32 0.33 0.33 0.36 0.42 0.52 0.66 0.73 0.71 0.69 0.65 0.64 0.64 0.74 0.79 0.73 0.65 0.55 0.49 0.55 0.65 0.74 0.69 0.61 0.54 0.46 0.39 0.38 0.42 0.47 0.47 0.45 0.41 0.37 0.33 0.31
0.21 0.25 0.25 0.25 0.24 0.22 0.19 0.19 0.20 0.23 0.28 0.35 0.46 0.62 0.83 0.88 0.87 0.91 0.77 0.59 0.60 0.69 0.71 0.67 0.59 0.49 0.44 0.45 0.52 0.59 0.60 0.58 0.53 0.44 0.35 0.33 0.34 0.37 0.39 0.36 0.36 0.35 0.31 0.27
0.05 0.07 0.09 0.09 0.11 0.13 0.14 0.14 0.16 0.19 0.27 0.35 0.42 0.58 0.84 1.01 0.90 0.72 0.67 0.64 0.63 0.60 0.57 0.57 0.51 0.44 0.42 0.40 0.42 0.49 0.54 0.55 0.50 0.42 0.34 0.32 0.31 0.31 0.33 0.31 0.30 0.27 0.24 0.23
0.03 0.03 0.03 0.05 0.10 0.15 0.19 0.24 0.27 0.30 0.39 0.46 0.46 0.52 0.68 0.90 0.95 0.71 0.57 0.53 0.55 0.53 0.50 0.51 0.53 0.52 0.44 0.38 0.37 0.43 0.47 0.48 0.47 0.41 0.35 0.34 0.30 0.29 0.31 0.28 0.27 0.24 0.22 0.22
0.03 0.04 0.06 0.09 0.15 0.22 0.30 0.41 0.52 0.57 0.68 0.80 0.77 0.70 0.76 0.81 0.76 0.66 0.55 0.47 0.45 0.47 0.44 0.47 0.52 0.55 0.47 0.39 0.38 0.41 0.43 0.46 0.45 0.41 0.37 0.34 0.30 0.28 0.28 0.23 0.21 0.21 0.20 0.17
0.06 0.07 0.11 0.16 0.20 0.28 0.42 0.57 0.73 0.82 0.94 1.14 1.20 1.01 0.93 0.92 0.82 0.71 0.61 0.52 0.49 0.49 0.46 0.44 0.45 0.47 0.47 0.43 0.40 0.39 0.43 0.48 0.46 0.44 0.40 0.33 0.28 0.26 0.24 0.20 0.18 0.17 0.15 0.14